Date,TemperatureHighF,TemperatureAvgF,TemperatureLowF,DewpointHighF,DewpointAvgF,DewpointLowF,HumidityHigh,HumidityAvg,HumidityLow,PressureMaxIn,PressureMinIn,WindSpeedMaxMPH,WindSpeedAvgMPH,GustSpeedMaxMPH,PrecipitationSumIn
2013-1-1,22.0,18.1,10.0,18.0,12.9,6.0,88,80,67,30.29,30.15,7,4,14,0.01
2013-1-2,24.0,16.1,5.0,18.0,11.0,2.0,90,81,71,30.30,30.21,10,5,17,0.00
2013-1-3,31.0,22.0,16.0,27.0,18.4,12.0,91,86,80,30.40,30.21,10,6,15,0.00
2013-1-4,32.0,22.9,11.0,26.0,18.4,8.0,88,83,76,30.40,30.32,14,7,20,0.00
2013-1-5,35.0,28.6,20.0,32.0,25.6,17.0,95,88,82,30.32,30.05,12,6,21,0.02
2013-1-6,35.0,26.8,18.0,32.0,23.0,16.0,92,85,78,30.39,30.03,14,8,25,0.01
2013-1-7,37.0,27.5,16.0,30.0,23.5,14.0,93,85,75,30.41,30.17,14,7,25,0.00
2013-1-8,45.0,34.2,27.0,36.0,29.6,24.0,89,83,71,30.22,30.12,10,5,18,0.00
2013-1-9,48.0,39.9,32.0,38.0,32.9,27.0,89,76,59,30.53,30.12,12,5,19,0.00
2013-1-10,49.0,37.1,30.0,48.0,33.2,26.0,98,86,72,30.52,29.83,11,6,20,0.04
2013-1-11,56.0,51.3,44.0,53.0,48.9,43.0,98,92,84,29.85,29.74,16,10,29,0.40
2013-1-12,51.0,43.2,29.0,48.0,39.5,27.0,95,87,66,29.97,29.76,15,8,24,0.05
2013-1-13,29.0,22.1,16.0,27.0,19.0,11.0,94,88,82,30.35,29.90,11,7,18,0.01
2013-1-14,24.0,17.7,13.0,17.0,13.6,10.0,91,84,72,30.51,30.35,8,2,12,0.01
2013-1-15,29.0,21.3,13.0,23.0,17.3,10.0,92,84,73,30.48,30.17,5,1,11,0.01
2013-1-16,36.0,28.4,18.0,29.0,23.3,15.0,93,81,68,30.17,29.98,18,6,26,0.00
2013-1-17,34.0,30.0,22.0,29.0,23.7,18.0,91,78,59,30.49,30.11,12,5,19,0.00
2013-1-18,42.0,32.7,21.0,33.0,26.5,17.0,89,78,66,30.49,30.08,18,11,31,0.10
2013-1-19,52.0,41.3,34.0,41.0,33.9,29.0,85,75,60,30.08,29.85,19,11,30,0.01
2013-1-20,38.0,21.3,17.0,30.0,13.0,9.0,83,70,55,30.35,30.05,17,7,29,0.01
2013-1-21,17.0,11.0,5.0,12.0,2.1,-3.0,82,67,49,30.41,30.27,16,11,29,0.00
2013-1-22,15.0,9.2,2.0,4.0,-0.7,-3.0,81,64,51,30.50,30.40,10,6,16,0.00
2013-1-23,33.0,20.6,12.0,18.0,10.2,3.0,72,64,53,30.43,30.15,10,6,22,0.00
2013-1-24,23.0,16.9,8.0,10.0,5.8,-1.0,75,62,52,30.66,30.37,13,6,23,0.00
2013-1-25,35.0,26.3,19.0,21.0,17.0,8.0,88,68,52,30.39,30.06,13,6,21,0.00
2013-1-26,32.0,23.1,13.0,19.0,13.3,8.0,82,67,47,30.43,30.22,9,3,16,0.00
2013-1-27,42.0,30.9,22.0,40.0,27.1,17.0,97,86,73,30.39,29.96,14,8,27,0.12
2013-1-28,57.0,51.1,42.0,57.0,50.2,41.0,99,97,96,29.98,29.82,14,7,26,0.11
2013-1-29,62.0,57.7,51.0,60.0,56.3,50.0,99,95,90,29.83,29.40,16,10,33,0.05
2013-1-30,51.0,37.0,22.0,50.0,34.7,17.0,98,92,80,29.78,29.28,20,12,35,0.02
2013-1-31,22.0,17.2,6.0,17.0,11.0,0.0,83,76,68,30.32,29.78,18,13,30,0.01
2013-2-1,21.0,12.0,3.0,18.0,5.0,-2.0,87,73,63,30.50,30.23,14,9,27,0.00
2013-2-2,28.0,22.0,15.0,24.0,18.7,11.0,93,87,81,30.25,30.07,14,7,20,0.00
2013-2-3,28.0,22.7,16.0,22.0,17.6,13.0,94,81,58,30.15,30.02,16,6,25,0.00
2013-2-4,39.0,29.8,23.0,30.0,24.7,18.0,89,81,67,30.06,29.83,11,6,20,0.17
2013-2-5,42.0,31.3,24.0,34.0,27.4,22.0,93,86,72,30.11,29.86,14,6,22,0.06
2013-2-6,43.0,34.7,27.0,34.0,29.6,25.0,94,82,67,30.25,30.11,9,4,14,0.05
2013-2-7,41.0,36.1,33.0,40.0,33.9,30.0,97,92,83,30.11,29.86,11,5,24,0.02
2013-2-8,34.0,28.9,25.0,32.0,25.8,22.0,94,88,83,30.41,30.01,12,6,24,0.04
2013-2-9,36.0,31.6,28.0,32.0,27.5,24.0,89,84,79,30.41,30.08,9,6,18,0.01
2013-2-10,50.0,41.8,34.0,49.0,39.7,30.0,96,92,75,30.09,29.57,17,11,31,0.04
2013-2-11,44.0,35.7,29.0,37.0,28.0,25.0,86,73,63,30.13,29.65,21,13,34,0.01
2013-2-12,35.0,29.1,24.0,29.0,25.7,22.0,93,87,77,30.17,29.96,7,3,13,0.03
2013-2-13,47.0,34.6,27.0,34.0,29.4,25.0,94,82,58,29.97,29.78,12,4,19,0.03
2013-2-14,41.0,36.3,33.0,34.0,31.3,29.0,92,82,72,30.03,29.76,15,8,26,0.02
2013-2-15,34.0,29.6,22.0,30.0,21.0,14.0,90,71,45,30.24,30.03,12,7,19,0.00
2013-2-16,28.0,21.4,15.0,17.0,12.9,8.0,82,70,53,30.26,30.17,11,6,19,0.00
2013-2-17,36.0,25.0,13.0,24.0,16.4,8.0,86,70,53,30.26,29.99,11,5,21,0.00
2013-2-18,55.0,40.9,28.0,47.0,35.2,23.0,94,80,71,30.00,29.50,23,14,39,0.05
2013-2-19,28.0,21.2,17.0,24.0,14.5,9.0,85,75,67,30.27,29.76,24,15,37,0.05
2013-2-20,25.0,16.8,7.0,16.0,9.8,2.0,87,74,60,30.45,30.31,8,4,15,0.00
2013-2-21,31.0,22.9,15.0,29.0,19.9,12.0,96,88,81,30.40,29.89,11,5,31,0.00
2013-2-22,33.0,30.4,26.0,32.0,28.1,22.0,97,91,81,30.03,29.82,15,8,27,0.15
2013-2-23,28.0,24.0,19.0,23.0,19.8,16.0,91,84,76,30.05,30.00,8,4,14,0.01
2013-2-24,38.0,27.2,16.0,29.0,22.4,14.0,91,83,66,30.18,30.03,5,2,8,0.03
2013-2-25,43.0,34.4,27.0,35.0,29.4,24.0,91,82,69,30.15,29.83,10,4,20,0.01
2013-2-26,35.0,32.8,32.0,32.0,30.8,29.0,97,93,81,29.83,29.43,15,6,31,0.80
2013-2-27,32.0,31.4,30.0,31.0,30.0,29.0,97,95,91,29.80,29.55,10,5,20,0.23
2013-2-28,35.0,32.2,31.0,32.0,30.2,29.0,95,93,86,30.09,29.80,8,5,15,0.22
2013-3-1,31.0,31.0,31.0,29.0,29.0,29.0,92,92,91,30.09,30.08,4,3,7,0.22
2013-3-2,29.0,24.8,17.0,22.0,18.6,12.0,84,77,67,30.24,30.16,9,6,17,0.00
2013-3-3,32.0,23.7,14.0,19.0,15.0,11.0,90,70,51,30.22,30.12,4,1,8,0.00
2013-3-4,35.0,31.0,25.0,29.0,25.6,18.0,85,80,75,30.14,29.91,12,7,24,0.01
2013-3-5,34.0,31.3,28.0,32.0,29.5,27.0,96,93,82,30.03,29.83,15,7,26,0.01
2013-3-6,32.0,28.1,25.0,27.0,24.7,23.0,94,87,79,30.37,30.03,12,8,21,0.01
2013-3-7,34.0,29.9,26.0,28.0,25.1,23.0,90,83,72,30.45,30.36,6,2,9,0.00
2013-3-8,43.0,33.8,25.0,36.0,29.4,23.0,92,84,73,30.48,30.27,10,4,17,0.00
2013-3-9,51.0,41.9,35.0,43.0,36.8,31.0,88,82,70,30.28,29.81,13,8,25,0.00
2013-3-10,55.0,49.3,46.0,51.0,46.4,40.0,97,90,67,29.82,29.62,12,6,25,0.00
2013-3-11,49.0,36.7,31.0,48.0,34.5,27.0,97,92,84,29.93,29.63,16,11,27,0.00
2013-3-12,39.0,31.7,26.0,33.0,26.9,22.0,94,82,71,30.15,29.92,15,10,27,0.00
2013-3-13,35.0,27.9,23.0,24.0,20.1,18.0,91,73,52,30.40,30.15,14,9,25,0.00
2013-3-14,42.0,32.1,24.0,32.0,25.8,20.0,90,78,62,30.40,30.13,12,4,21,0.00
2013-3-15,55.0,41.3,29.0,46.0,36.6,27.0,94,84,67,30.14,29.67,8,3,14,0.00
2013-3-16,45.0,36.8,32.0,42.0,33.5,27.0,97,88,77,30.11,29.64,10,5,21,0.00
2013-3-17,38.0,33.5,30.0,31.0,27.6,25.0,85,79,72,30.17,29.90,8,5,20,0.00
2013-3-18,41.0,33.5,26.0,36.0,30.6,19.0,96,89,74,29.96,29.69,15,8,26,0.00
2013-3-19,40.0,29.4,20.0,19.0,16.9,13.0,79,61,33,30.19,29.94,18,10,28,0.00
2013-3-20,30.0,24.5,18.0,20.0,12.3,7.0,80,60,43,30.22,30.12,17,11,31,0.00
2013-3-21,34.0,23.9,14.0,16.0,11.5,8.0,83,61,41,30.14,30.04,9,3,19,0.00
2013-3-22,44.0,32.0,20.0,24.0,18.0,13.0,84,58,34,30.11,30.01,6,2,11,0.00
2013-3-23,48.0,38.5,32.0,28.0,25.4,22.0,78,60,43,30.10,29.95,7,3,17,0.00
2013-3-24,33.0,30.0,28.0,29.0,28.1,25.0,97,93,74,29.96,29.59,12,7,22,0.03
2013-3-25,34.0,30.1,27.0,30.0,27.9,25.0,97,92,81,30.15,29.73,12,8,22,0.08
2013-3-26,36.0,33.1,31.0,28.0,27.4,26.0,86,79,67,30.32,30.14,9,6,16,0.01
2013-3-27,40.0,33.4,27.0,29.0,25.8,22.0,87,75,51,30.40,30.32,8,3,14,0.00
2013-3-28,47.0,37.0,27.0,33.0,27.7,22.0,84,70,56,30.41,30.31,5,2,9,0.00
2013-3-29,55.0,44.2,36.0,38.0,33.8,30.0,84,68,46,30.32,30.23,6,2,12,0.00
2013-3-30,55.0,46.1,35.0,45.0,37.6,-99.9,90,75,61,30.24,29.91,13,5,22,0.00
2013-3-31,59.0,49.9,45.0,47.0,44.1,41.0,95,82,53,29.91,29.79,13,8,27,0.00
2013-4-1,43.0,37.1,30.0,20.0,18.4,16.0,66,48,35,30.24,30.15,11,5,18,0.00
2013-4-2,46.0,34.1,23.0,22.0,17.7,13.0,82,54,27,30.36,30.24,11,4,17,0.00
2013-4-3,49.0,37.4,25.0,23.0,20.3,18.0,80,53,31,30.46,30.32,8,3,15,0.00
2013-4-4,58.0,45.3,30.0,26.0,22.6,19.0,73,44,24,30.27,30.03,7,3,13,0.00
2013-4-5,58.0,47.0,36.0,36.0,28.1,23.0,79,50,26,30.19,30.03,7,4,17,0.00
2013-4-6,70.0,55.5,40.0,47.0,35.6,26.0,67,48,31,30.09,29.68,24,13,41,0.01
2013-4-7,70.0,58.5,45.0,47.0,43.7,41.0,87,60,39,29.93,29.72,14,4,24,0.01
2013-4-8,72.0,62.9,56.0,60.0,55.7,42.0,92,78,60,29.88,29.67,22,8,34,0.07
2013-4-9,76.0,65.8,58.0,62.0,58.3,54.0,89,78,60,29.88,29.79,23,7,33,0.01
2013-4-10,68.0,54.3,44.0,63.0,51.6,42.0,96,91,82,29.88,29.64,12,6,25,1.44
2013-4-11,49.0,45.4,38.0,48.0,43.0,33.0,98,92,80,29.75,29.59,14,8,24,1.07
2013-4-12,41.0,39.0,37.0,37.0,34.5,30.0,88,83,77,29.95,29.66,17,10,26,0.01
2013-4-13,51.0,42.6,36.0,39.0,33.5,29.0,87,71,52,30.04,29.94,13,7,22,0.00
2013-4-14,74.0,58.5,44.0,54.0,46.6,39.0,90,67,45,29.98,29.64,16,8,30,0.01
2013-4-15,62.0,55.1,46.0,57.0,51.3,43.0,96,88,61,29.96,29.69,16,7,30,0.22
2013-4-16,52.0,46.5,42.0,46.0,42.3,40.0,96,85,69,30.21,29.89,10,4,17,0.56
2013-4-17,67.0,50.6,44.0,65.0,47.4,39.0,96,89,78,30.21,29.73,11,7,26,0.05
2013-4-18,70.0,57.1,40.0,66.0,55.0,34.0,98,93,81,29.75,29.49,19,10,32,1.76
2013-4-19,41.0,37.7,36.0,34.0,31.5,29.0,89,78,69,30.04,29.63,19,13,30,0.02
2013-4-20,47.0,38.6,31.0,33.0,28.8,26.0,87,70,47,30.40,30.04,8,3,13,0.02
2013-4-21,55.0,44.5,35.0,41.0,35.0,30.0,83,70,53,30.49,30.31,11,7,22,0.00
2013-4-22,66.0,53.5,40.0,48.0,40.2,35.0,83,63,35,30.32,30.03,9,5,16,0.00
2013-4-23,58.0,49.9,38.0,53.0,45.7,36.0,95,86,71,30.05,29.87,11,6,23,0.39
2013-4-24,48.0,40.9,35.0,37.0,34.2,32.0,94,78,56,30.22,29.96,12,7,20,0.19
2013-4-25,54.0,45.2,37.0,37.0,32.3,28.0,86,63,41,30.33,30.17,15,8,29,0.01
2013-4-26,62.0,50.7,39.0,48.0,41.4,33.0,87,71,57,30.37,30.28,16,7,26,0.00
2013-4-27,61.0,52.0,44.0,51.0,47.4,43.0,97,85,58,30.31,29.96,9,3,18,0.34
2013-4-28,61.0,55.0,52.0,56.0,52.8,50.0,98,93,80,29.96,29.85,7,3,12,0.32
2013-4-29,73.0,59.7,44.0,60.0,53.4,43.0,98,81,61,29.94,29.76,10,5,20,0.01
2013-4-30,82.0,69.0,57.0,63.0,58.8,55.0,92,72,44,29.93,29.79,14,8,26,0.01
2013-5-1,81.0,70.1,58.0,60.0,56.1,52.0,87,64,37,30.09,29.93,9,4,16,0.00
2013-5-2,75.0,64.1,50.0,66.0,57.3,47.0,93,80,58,30.11,30.03,8,4,19,0.21
2013-5-3,67.0,55.4,43.0,62.0,52.4,42.0,97,90,79,30.07,29.80,12,5,27,0.41
2013-5-4,61.0,57.2,53.0,57.0,54.8,51.0,96,92,81,30.01,29.83,10,4,23,0.25
2013-5-5,67.0,58.7,52.0,56.0,53.4,51.0,97,84,62,30.01,29.90,7,3,17,0.11
2013-5-6,72.0,62.2,53.0,56.0,52.6,50.0,93,72,50,29.98,29.92,7,2,14,0.01
2013-5-7,77.0,66.5,53.0,56.0,48.5,41.0,84,56,31,30.02,29.94,6,1,13,0.00
2013-5-8,79.0,68.1,54.0,56.0,50.9,42.0,82,57,28,30.02,29.94,5,2,11,0.00
2013-5-9,65.0,62.3,60.0,62.0,58.8,54.0,96,88,70,29.98,29.80,11,4,18,0.56
2013-5-10,62.0,54.5,50.0,60.0,51.1,-99.9,97,93,86,29.97,29.80,11,5,18,0.01
2013-5-11,61.0,52.5,44.0,53.0,40.4,-99.9,92,69,33,30.10,29.93,17,7,33,0.00
2013-5-12,56.0,47.4,38.0,33.0,30.0,26.0,76,53,34,30.19,30.10,13,6,25,0.00
2013-5-13,67.0,54.8,39.0,43.0,34.8,29.0,82,50,26,30.21,30.03,8,3,16,0.00
2013-5-14,88.0,69.8,54.0,63.0,52.1,-99.9,72,57,41,30.04,29.70,17,9,22,0.00
2013-5-15,83.0,73.2,67.0,62.0,57.0,54.0,68,57,47,29.83,29.74,15,10,26,0.00
2013-5-16,82.0,68.2,63.0,62.0,37.8,-99.9,78,60,38,29.92,29.79,10,3,19,0.00
2013-5-17,78.0,69.1,59.0,65.0,56.3,-99.9,94,76,53,29.97,29.90,9,3,15,0.37
2013-5-18,79.0,69.8,61.0,65.0,63.1,60.0,97,81,58,30.01,29.89,6,2,12,0.37
2013-5-19,87.0,75.0,61.0,72.0,66.7,60.0,96,77,56,29.92,29.70,10,5,21,0.00
2013-5-20,85.0,74.7,65.0,68.0,63.3,59.0,92,70,42,29.84,29.68,18,9,31,0.27
2013-5-21,79.0,74.4,68.0,69.0,66.6,65.0,91,77,64,29.71,29.64,14,8,22,0.76
2013-5-22,72.0,65.6,60.0,65.0,60.2,54.0,96,83,61,29.78,29.62,13,7,23,0.05
2013-5-23,60.0,56.4,48.0,56.0,52.3,44.0,94,86,78,30.25,29.78,10,6,20,0.03
2013-5-24,67.0,53.0,39.0,45.0,39.0,35.0,89,62,34,30.42,30.25,7,2,15,0.01
2013-5-25,56.0,50.8,47.0,51.0,43.3,36.0,94,77,56,30.41,30.23,7,3,17,0.34
2013-5-26,63.0,55.8,49.0,59.0,52.9,47.0,96,90,85,30.28,30.01,10,5,20,0.35
2013-5-27,70.0,61.9,57.0,66.0,60.2,56.0,97,94,86,30.13,29.83,10,4,22,0.72
2013-5-28,79.0,69.9,63.0,73.0,66.4,61.0,96,89,78,29.87,29.75,20,8,31,0.07
2013-5-29,82.0,72.8,63.0,71.0,66.0,60.0,95,80,63,29.94,29.84,15,7,32,0.24
2013-5-30,82.0,73.0,63.0,72.0,66.9,61.0,97,81,67,29.91,29.80,17,8,42,0.38
2013-5-31,76.0,69.2,62.0,72.0,66.6,61.0,97,91,82,29.88,29.73,15,6,27,0.68
2013-6-1,73.0,66.6,62.0,68.0,62.6,58.0,95,87,82,29.80,29.68,16,8,26,1.09
2013-6-2,62.0,58.8,55.0,59.0,56.0,52.0,94,90,83,30.03,29.79,8,4,14,0.24
2013-6-3,63.0,55.5,50.0,53.0,48.8,45.0,95,79,57,30.13,30.02,5,1,12,0.00
2013-6-4,71.0,62.2,51.0,57.0,52.1,47.0,89,71,54,30.12,30.02,7,2,16,0.00
2013-6-5,79.0,68.3,57.0,61.0,56.9,53.0,88,69,47,30.03,29.85,4,1,10,0.00
2013-6-6,74.0,66.4,59.0,62.0,57.8,51.0,87,74,58,29.86,29.80,7,3,13,0.00
2013-6-7,75.0,63.0,54.0,57.0,53.3,49.0,85,71,51,29.90,29.84,8,3,16,0.00
2013-6-8,77.0,66.0,51.0,57.0,51.8,45.0,85,62,44,29.96,29.90,7,1,14,0.00
2013-6-9,79.0,69.1,61.0,65.0,59.8,57.0,94,74,48,29.96,29.77,15,4,25,0.08
2013-6-10,78.0,68.0,60.0,64.0,61.2,59.0,97,80,57,29.87,29.73,8,3,16,0.08
2013-6-11,88.0,73.9,59.0,73.0,65.0,57.0,96,75,56,29.94,29.78,10,4,21,0.03
2013-6-12,93.0,82.8,72.0,73.0,70.7,67.0,90,69,43,29.87,29.57,19,9,32,0.01
2013-6-13,82.0,74.5,65.0,72.0,59.9,53.0,88,63,39,29.97,29.62,11,6,23,0.00
2013-6-14,80.0,68.7,55.0,58.0,53.9,50.0,88,62,41,30.10,29.95,5,1,13,0.00
2013-6-15,78.0,70.2,67.0,69.0,61.9,55.0,94,76,57,30.05,29.88,16,5,28,0.40
2013-6-16,80.0,71.2,66.0,71.0,67.5,64.0,96,88,72,30.02,29.88,10,4,16,0.34
2013-6-17,84.0,75.1,65.0,71.0,66.2,58.0,98,76,42,29.93,29.86,8,1,15,0.01
2013-6-18,82.0,72.1,62.0,68.0,62.6,57.0,95,74,53,29.99,29.86,8,3,17,0.00
2013-6-19,84.0,71.1,56.0,64.0,58.1,51.0,86,66,36,30.07,29.99,5,1,11,0.00
2013-6-20,87.0,74.9,65.0,69.0,64.4,61.0,92,72,44,30.11,30.04,7,2,15,0.00
2013-6-22,84.0,73.7,67.0,77.0,69.6,65.0,94,87,76,30.03,29.98,10,5,20,0.28
2013-6-23,81.0,72.9,66.0,73.0,68.6,64.0,96,86,71,30.03,29.91,12,5,22,0.02
2013-6-24,86.0,73.5,66.0,75.0,68.4,64.0,95,85,65,30.07,29.95,8,3,17,0.00
2013-6-25,85.0,75.4,66.0,76.0,71.5,64.0,96,88,72,29.93,29.81,13,6,20,1.56
2013-6-26,81.0,75.1,67.0,76.0,71.7,66.0,96,89,82,29.86,29.70,11,4,22,0.49
2013-6-27,83.0,74.9,72.0,75.0,71.3,67.0,99,90,67,29.80,29.71,9,3,16,0.01
2013-6-28,82.0,73.3,67.0,68.0,65.3,61.0,92,78,50,29.78,29.63,10,6,24,0.01
2013-6-29,72.0,67.0,63.0,66.0,62.9,60.0,94,87,75,29.72,29.59,9,4,17,0.30
2013-6-30,76.0,67.5,61.0,65.0,59.6,47.0,92,77,49,29.92,29.72,12,4,24,0.03
2013-7-1,77.0,68.7,62.0,61.0,54.6,45.0,81,62,46,29.99,29.91,13,5,25,0.01
2013-7-2,70.0,65.4,61.0,60.0,57.6,55.0,89,76,62,30.03,29.96,9,4,21,0.02
2013-7-3,77.0,67.4,60.0,62.0,57.7,52.0,93,74,43,30.06,29.99,6,1,11,0.01
2013-7-4,80.0,71.0,59.0,65.0,60.6,56.0,92,71,54,30.09,30.01,7,3,15,0.00
2013-7-5,81.0,72.2,62.0,69.0,65.1,60.0,98,79,52,30.07,29.99,5,2,13,0.00
2013-7-6,80.0,71.7,65.0,71.0,66.9,64.0,97,85,66,30.04,29.96,5,2,13,0.00
2013-7-7,87.0,75.9,65.0,74.0,68.5,63.0,93,79,61,30.01,29.94,10,4,16,0.00
2013-7-8,85.0,76.5,73.0,76.0,69.9,-99.9,91,83,60,30.05,29.95,12,5,22,0.01
2013-7-9,89.0,80.5,75.0,78.0,74.5,72.0,92,82,64,29.99,29.86,8,4,14,0.01
2013-7-10,79.0,74.0,69.0,75.0,67.1,-99.9,95,84,68,29.98,29.81,11,4,22,0.25
2013-7-11,79.0,69.5,60.0,65.0,60.9,56.0,93,76,54,30.07,29.97,5,1,11,0.25
2013-7-12,80.0,69.8,57.0,65.0,56.7,49.0,88,66,35,30.13,30.04,3,1,10,0.00
2013-7-13,80.0,71.8,60.0,67.0,63.1,58.0,95,76,56,30.11,30.04,5,1,14,0.00
2013-7-14,87.0,76.5,65.0,74.0,68.8,63.0,94,78,57,30.15,30.07,6,2,12,0.00
2013-7-15,86.0,77.9,71.0,78.0,73.3,69.0,95,86,70,30.22,30.14,5,1,16,0.01
2013-7-16,88.0,80.0,70.0,75.0,72.7,69.0,97,80,61,30.29,30.21,8,2,14,0.01
2013-7-17,91.0,81.2,71.0,78.0,73.3,69.0,95,78,55,30.30,30.16,5,1,10,0.01
2013-7-18,90.0,81.7,72.0,78.0,74.9,70.0,97,81,62,30.17,29.97,7,2,13,0.00
2013-7-19,91.0,81.7,74.0,78.0,74.7,72.0,94,80,59,29.97,29.79,10,5,17,0.00
2013-7-20,84.0,77.6,71.0,75.0,69.4,-99.9,95,78,57,29.90,29.79,7,2,12,0.03
2013-7-21,78.0,72.5,66.0,73.0,70.1,65.0,98,93,83,29.92,29.83,4,1,9,0.12
2013-7-22,84.0,79.0,69.0,74.0,71.1,68.0,97,78,66,29.84,29.74,6,2,12,0.13
2013-7-23,81.0,72.5,65.0,72.0,66.4,60.0,98,82,61,29.92,29.74,12,4,20,0.05
2013-7-24,74.0,64.8,56.0,60.0,56.2,54.0,95,75,53,30.03,29.92,7,2,15,0.01
2013-7-25,77.0,66.3,52.0,64.0,56.8,50.0,96,73,52,30.11,30.03,4,1,8,0.00
2013-7-26,71.0,65.6,60.0,68.0,62.0,57.0,93,88,78,30.05,29.89,11,4,19,0.13
2013-7-27,68.0,61.0,52.0,61.0,54.1,48.0,96,79,54,29.97,29.90,11,4,19,0.03
2013-7-28,71.0,60.3,50.0,58.0,52.0,47.0,92,76,56,30.05,29.94,13,5,22,0.01
2013-7-29,75.0,64.0,54.0,62.0,55.3,51.0,91,75,53,30.15,30.05,4,1,11,0.00
2013-7-30,67.0,65.1,62.0,66.0,62.8,58.0,97,92,80,30.14,30.02,8,2,16,0.33
2013-7-31,74.0,68.8,65.0,70.0,67.1,64.0,99,95,83,30.03,29.96,7,1,13,0.02
2013-8-1,80.0,69.7,63.0,67.0,63.0,59.0,98,82,53,30.03,29.95,7,2,15,0.01
2013-8-2,80.0,71.3,63.0,72.0,66.4,60.0,94,85,75,29.96,29.88,11,6,20,0.01
2013-8-3,80.0,71.7,63.0,68.0,63.6,58.0,95,77,54,30.09,29.92,7,2,13,0.00
2013-8-4,78.0,67.8,56.0,64.0,59.3,55.0,96,76,52,30.16,30.08,4,1,10,0.00
2013-8-5,74.0,67.8,57.0,66.0,61.5,55.0,94,81,63,30.09,29.87,8,2,19,0.00
2013-8-6,83.0,72.9,66.0,74.0,69.0,64.0,97,88,72,29.91,29.81,6,2,11,0.00
2013-8-7,82.0,73.2,68.0,76.0,70.9,67.0,98,93,81,29.89,29.80,7,3,12,0.14
2013-8-8,78.0,71.1,65.0,72.0,67.1,61.0,98,88,76,29.96,29.88,5,1,11,0.14
2013-8-9,79.0,69.8,58.0,68.0,62.3,56.0,94,78,59,30.04,29.95,4,1,10,0.00
2013-8-10,80.0,71.8,62.0,66.0,63.2,59.0,96,76,53,30.11,30.03,5,2,12,0.00
2013-8-11,81.0,68.9,56.0,68.0,61.2,54.0,96,78,55,30.13,30.04,4,1,9,0.00
2013-8-12,81.0,71.7,63.0,72.0,66.2,61.0,96,83,68,30.06,29.86,7,2,13,0.09
2013-8-13,73.0,64.8,54.0,66.0,56.7,-99.9,96,79,51,30.12,29.90,7,2,15,0.09
2013-8-14,72.0,59.7,49.0,56.0,50.4,-99.9,97,78,50,30.22,30.13,4,0,9,0.01
2013-8-15,73.0,57.9,53.0,57.0,41.6,-99.9,94,71,50,30.19,30.09,4,1,10,0.00
2013-8-16,77.0,65.5,59.0,61.0,53.9,-99.9,89,72,48,30.16,30.11,4,1,11,0.00
2013-8-17,77.0,65.8,56.0,62.0,56.0,-99.9,94,74,51,30.20,30.12,6,1,13,0.00
2013-8-18,82.0,69.5,57.0,66.0,60.3,55.0,92,74,51,30.17,30.07,4,1,11,0.00
2013-8-19,82.0,67.7,59.0,70.0,53.5,-99.9,97,79,57,30.12,30.02,5,1,10,0.00
2013-8-20,84.0,72.1,62.0,70.0,63.9,-99.9,94,79,56,30.11,30.02,7,2,13,0.00
2013-8-21,86.0,74.2,64.0,72.0,67.4,62.0,95,81,57,30.09,29.99,8,2,14,0.00
2013-8-22,81.0,72.5,67.0,72.0,68.5,65.0,95,87,70,30.08,29.99,7,2,16,0.28
2013-8-23,82.0,72.8,65.0,70.0,66.9,63.0,98,83,60,30.12,30.06,4,1,12,0.01
2013-8-24,85.0,72.1,61.0,70.0,63.8,-99.9,95,78,56,30.22,30.11,6,2,13,0.00
2013-8-25,85.0,73.8,62.0,69.0,64.8,59.0,91,75,54,30.25,30.15,8,3,12,0.00
2013-8-26,88.0,76.4,66.0,75.0,69.9,62.0,97,81,60,30.17,30.01,6,3,12,0.00
2013-8-27,88.0,76.6,69.0,76.0,71.5,68.0,96,85,63,30.02,29.93,10,5,18,0.00
2013-8-28,91.0,86.2,75.0,77.0,74.5,72.0,91,69,58,29.97,29.91,9,4,15,0.01
2013-8-29,84.0,74.8,69.0,74.0,71.0,68.0,98,89,70,30.03,29.95,3,1,10,0.01
2013-8-30,93.0,78.8,67.0,79.0,72.3,62.0,97,82,57,29.95,29.77,7,2,14,0.00
2013-8-31,93.0,77.6,68.0,79.0,69.5,-99.9,94,79,62,29.83,29.67,9,3,18,0.02
2013-9-1,83.0,74.1,68.0,75.0,70.4,67.0,98,89,75,29.80,29.73,7,2,12,0.02
2013-9-2,80.0,70.8,61.0,67.0,62.2,58.0,94,76,53,29.95,29.79,6,3,11,0.00
2013-9-3,75.0,65.0,55.0,61.0,57.9,54.0,98,80,55,30.08,29.95,4,1,11,0.00
2013-9-4,82.0,68.2,55.0,65.0,59.2,53.0,96,75,47,30.15,30.04,5,1,10,0.01
2013-9-5,85.0,72.1,59.0,71.0,63.2,57.0,95,75,51,30.18,30.11,4,1,8,0.01
2013-9-6,85.0,71.8,59.0,69.0,63.3,56.0,92,76,56,30.17,30.01,6,2,12,0.00
2013-9-7,87.0,73.2,63.0,70.0,63.4,-99.9,93,75,47,30.02,29.89,10,3,17,0.00
2013-9-8,86.0,76.4,69.0,72.0,69.1,66.0,95,79,61,29.95,29.87,4,1,10,0.02
2013-9-9,93.0,81.5,68.0,76.0,72.6,67.0,98,76,53,29.91,29.83,9,5,16,0.01
2013-9-10,94.0,81.0,70.0,72.0,69.3,67.0,93,71,42,30.03,29.91,11,4,18,0.00
2013-9-11,93.0,79.9,68.0,71.0,67.9,63.0,93,70,38,30.07,29.97,11,4,20,0.00
2013-9-12,82.0,72.0,59.0,70.0,62.1,49.0,97,74,35,30.04,29.93,11,4,21,0.49
2013-9-13,69.0,59.5,51.0,53.0,48.4,43.0,95,69,44,30.15,30.04,8,2,16,0.01
2013-9-14,72.0,56.8,44.0,50.0,43.8,-99.9,95,67,36,30.18,30.04,5,1,12,0.00
2013-9-15,72.0,60.1,53.0,62.0,53.5,46.0,94,80,52,30.12,29.97,9,3,15,0.11
2013-9-16,69.0,60.6,52.0,57.0,54.3,48.0,96,81,61,30.30,30.12,7,2,14,0.11
2013-9-17,73.0,60.0,49.0,59.0,53.2,47.0,96,80,55,30.29,30.09,6,2,15,0.00
2013-9-18,73.0,63.1,61.0,69.0,57.8,55.0,90,83,79,30.09,29.94,7,2,17,0.02
2013-9-19,90.0,78.6,70.0,72.0,70.1,68.0,95,77,52,29.95,29.78,12,7,24,0.02
2013-9-20,76.0,66.9,56.0,71.0,63.1,51.0,97,88,72,29.86,29.80,9,4,21,0.20
2013-9-21,68.0,57.3,49.0,54.0,48.6,-99.9,95,77,48,29.93,29.84,8,3,16,0.01
2013-9-22,72.0,57.6,45.0,53.0,48.2,44.0,97,74,44,30.04,29.93,4,1,10,0.01
2013-9-23,75.0,59.0,45.0,51.0,47.4,43.0,94,69,37,30.07,29.96,6,2,14,0.01
2013-9-24,76.0,61.6,48.0,59.0,53.0,46.0,93,76,52,29.99,29.85,6,2,14,0.00
2013-9-25,80.0,66.9,54.0,62.0,55.7,50.0,88,69,47,29.90,29.84,5,2,12,0.00
2013-9-26,81.0,65.8,53.0,59.0,53.4,49.0,89,68,38,30.04,29.90,5,2,12,0.00
2013-9-27,82.0,66.1,52.0,58.0,51.8,48.0,88,64,33,30.13,30.01,6,2,14,0.00
2013-9-28,82.0,68.1,53.0,63.0,55.6,-99.9,93,68,47,30.05,29.91,15,6,27,0.01
2013-9-29,71.0,61.0,53.0,65.0,51.8,45.0,97,75,41,30.04,29.94,7,3,16,0.35
2013-9-30,76.0,59.8,48.0,59.0,52.8,46.0,98,80,48,30.00,29.88,10,3,16,0.01
2013-10-1,68.0,66.1,65.0,65.0,64.3,63.0,96,93,89,29.98,29.95,4,2,8,0.00
2013-10-2,81.0,69.9,64.0,69.0,66.2,63.0,99,89,61,30.06,29.95,7,3,14,0.01
2013-10-3,83.0,70.2,64.0,70.0,66.5,62.0,98,89,61,29.96,29.83,11,4,22,0.91
2013-10-4,86.0,73.2,64.0,71.0,67.1,62.0,96,82,55,29.96,29.88,8,4,16,0.72
2013-10-5,78.0,71.3,59.0,73.0,67.4,54.0,97,88,70,29.92,29.78,10,5,16,0.41
2013-10-6,58.0,51.7,45.0,54.0,45.6,39.0,94,81,53,29.83,29.75,15,6,27,0.05
2013-10-7,66.0,53.1,44.0,50.0,46.3,42.0,97,80,52,30.11,29.82,8,4,16,0.01
2013-10-8,76.0,60.1,47.0,53.0,47.6,44.0,92,67,37,30.21,30.11,6,2,14,0.00
2013-10-9,73.0,58.7,45.0,51.0,46.9,43.0,94,68,39,30.21,30.10,4,2,10,0.00
2013-10-10,77.0,62.9,51.0,60.0,54.0,47.0,93,75,52,30.15,30.02,4,1,11,0.00
2013-10-11,78.0,64.9,54.0,61.0,55.7,52.0,93,74,46,30.04,29.91,9,4,19,0.00
2013-10-12,73.0,60.9,51.0,64.0,53.9,-99.9,94,81,59,30.19,29.95,8,3,16,0.04
2013-10-13,67.0,54.6,43.0,46.0,38.7,32.0,89,60,28,30.38,30.19,6,1,13,0.04
2013-10-14,67.0,53.4,41.0,46.0,40.4,36.0,91,65,33,30.37,30.09,7,2,15,0.00
2013-10-15,65.0,58.7,52.0,63.0,54.1,44.0,96,85,69,30.10,29.83,10,5,19,0.14
2013-10-16,53.0,49.2,44.0,48.0,43.3,41.0,89,80,71,30.00,29.91,12,5,20,0.02
2013-10-17,59.0,49.9,44.0,46.0,42.8,39.0,96,78,47,29.99,29.87,12,4,20,0.04
2013-10-18,54.0,46.0,40.0,43.0,40.0,38.0,94,80,59,30.02,29.90,11,4,21,0.02
2013-10-19,54.0,45.6,39.0,42.0,37.4,-99.9,96,77,50,29.99,29.88,14,6,24,0.19
2013-10-20,68.0,52.6,37.0,46.0,41.3,34.0,92,68,40,29.92,29.78,17,8,30,0.01
2013-10-21,54.0,46.4,32.0,46.0,36.7,25.0,82,69,48,30.03,29.85,11,6,20,0.00
2013-10-22,45.0,36.8,28.0,41.0,33.8,25.0,96,89,76,30.03,29.84,9,2,17,0.33
2013-10-23,44.0,38.3,34.0,36.0,33.1,30.0,95,82,58,30.11,29.96,9,5,15,0.15
2013-10-24,42.0,36.8,33.0,35.0,28.2,24.0,94,72,52,30.37,30.10,11,5,19,0.00
2013-10-25,52.0,42.7,25.0,33.0,29.3,22.0,90,61,40,30.49,30.19,11,6,18,0.00
2013-10-26,56.0,44.8,36.0,39.0,31.3,-99.9,76,62,39,30.19,29.96,14,8,27,0.00
2013-10-27,56.0,41.8,29.0,35.0,30.2,26.0,89,66,39,30.13,30.02,9,2,15,0.00
2013-10-28,63.0,46.9,34.0,41.0,31.4,-99.9,87,61,31,30.31,30.07,5,2,11,0.00
2013-10-29,56.0,47.1,38.0,50.0,43.0,36.0,97,86,65,30.31,30.12,7,3,12,0.07
2013-10-30,65.0,57.7,51.0,64.0,56.8,50.0,99,98,95,30.12,29.82,13,4,23,0.79
2013-10-31,63.0,57.9,46.0,62.0,56.7,44.0,98,96,92,29.82,29.29,16,9,31,1.13
2013-11-1,52.0,46.7,41.0,46.0,42.9,39.0,97,87,72,29.81,29.52,10,6,20,0.08
2013-11-2,49.0,41.8,37.0,40.0,35.7,-99.9,96,82,63,30.17,29.80,11,4,19,0.01
2013-11-3,53.0,41.7,31.0,39.0,34.7,29.0,96,78,51,30.32,30.16,7,2,14,0.01
2013-11-4,57.0,49.1,42.0,45.0,41.3,36.0,83,75,60,30.24,30.13,13,7,25,0.00
2013-11-5,56.0,52.6,50.0,52.0,49.1,45.0,97,88,81,30.28,29.98,9,5,22,0.13
2013-11-6,56.0,47.4,35.0,55.0,45.2,32.0,97,92,82,30.23,29.86,15,9,26,0.65
2013-11-7,49.0,37.0,29.0,38.0,31.5,26.0,91,81,52,30.35,30.23,13,4,25,0.01
2013-11-8,51.0,40.6,29.0,36.0,31.8,27.0,93,73,47,30.38,30.05,11,4,24,0.00
2013-11-9,63.0,49.7,42.0,43.0,36.5,-99.9,81,63,40,30.19,29.98,16,9,29,0.00
2013-11-10,49.0,39.6,33.0,37.0,31.7,29.0,86,74,53,30.42,30.19,9,3,14,0.00
2013-11-11,54.0,40.9,27.0,43.0,34.8,22.0,95,80,62,30.52,30.14,12,8,20,0.01
2013-11-12,31.0,24.4,19.0,23.0,19.0,16.0,86,80,66,30.76,30.51,9,4,17,0.01
2013-11-13,40.0,28.7,17.0,25.0,20.5,14.0,89,72,50,30.71,30.28,13,7,24,0.00
2013-11-14,52.0,38.4,28.0,31.0,26.1,22.0,79,63,35,30.28,30.04,18,10,26,0.00
2013-11-15,51.0,43.0,37.0,40.0,34.8,29.0,89,73,63,30.05,29.95,13,6,18,0.00
2013-11-16,60.0,53.3,44.0,57.0,49.5,-99.9,95,89,79,29.96,29.61,17,10,35,0.20
2013-11-17,70.0,58.2,44.0,65.0,53.6,39.0,96,85,70,29.87,29.24,25,13,49,0.32
2013-11-18,48.0,41.0,33.0,40.0,33.9,27.0,89,77,55,30.29,29.87,15,8,28,0.11
2013-11-19,43.0,34.0,26.0,31.0,27.9,23.0,92,79,57,30.38,30.27,7,3,15,0.00
2013-11-20,42.0,36.3,29.0,39.0,32.1,26.0,91,85,70,30.28,30.03,13,6,28,0.17
2013-11-21,49.0,46.0,42.0,47.0,43.9,39.0,98,92,84,30.21,30.11,9,3,16,0.31
2013-11-22,45.0,37.3,29.0,44.0,35.0,27.0,98,91,83,30.53,30.20,12,6,21,0.05
2013-11-23,29.0,22.6,16.0,27.0,15.8,-99.9,93,77,65,30.76,30.51,12,7,23,0.01
2013-11-24,27.0,18.6,10.0,15.0,10.1,6.0,86,70,43,30.81,30.48,5,2,12,0.00
2013-11-25,32.0,28.3,22.0,24.0,19.3,-99.9,79,72,64,30.48,30.17,14,7,20,0.00
2013-11-26,35.0,27.4,19.0,28.0,21.1,9.0,88,77,64,30.23,30.07,13,6,23,0.00
2013-11-27,27.0,18.8,13.0,12.0,9.5,6.0,79,67,49,30.33,30.22,11,5,19,0.00
2013-11-28,37.0,26.7,18.0,23.0,17.6,12.0,81,69,52,30.54,30.25,14,5,22,0.00
2013-11-29,39.0,28.1,14.0,24.0,20.2,11.0,90,73,53,30.66,30.42,7,3,14,0.00
2013-11-30,52.0,37.3,28.0,34.0,27.9,-99.9,86,72,51,30.43,30.11,12,5,20,0.00
2013-12-1,48.0,37.6,30.0,35.0,31.5,27.0,94,80,59,30.14,29.97,5,2,10,0.00
2013-12-2,45.0,37.9,31.0,40.0,34.7,29.0,96,88,76,29.97,29.71,7,4,13,0.00
2013-12-3,50.0,44.0,37.0,49.0,43.0,36.0,98,97,95,29.73,29.66,7,4,14,0.00
2013-12-4,57.0,49.4,40.0,56.0,48.2,34.0,99,96,85,29.79,29.50,12,6,23,0.01
2013-12-5,38.0,25.3,21.0,34.0,19.5,14.0,89,78,70,30.31,29.79,13,8,23,0.01
2013-12-6,21.0,17.5,12.0,14.0,11.0,7.0,81,75,70,30.62,30.29,9,6,16,0.00
2013-12-7,22.0,14.0,7.0,10.0,5.4,-99.9,87,71,50,30.76,30.59,7,3,12,0.00
2013-12-8,25.0,21.6,13.0,24.0,18.5,8.0,95,87,76,30.60,30.04,9,5,16,0.00
2013-12-9,24.0,18.9,10.0,22.0,13.8,2.0,93,80,66,30.31,30.05,13,8,22,0.00
2013-12-10,27.0,15.9,3.0,16.0,8.2,-2.0,86,72,57,30.37,30.18,17,6,29,0.00
2013-12-11,23.0,17.0,3.0,18.0,8.4,-99.9,85,74,55,30.67,30.31,11,5,19,0.00
2013-12-12,32.0,14.8,0.0,18.0,7.1,-4.0,83,72,53,30.66,30.30,13,6,21,0.00
2013-12-13,39.0,27.6,18.0,29.0,21.7,13.0,96,80,54,30.29,30.06,8,5,17,0.00
2013-12-14,32.0,29.1,23.0,31.0,26.5,-99.9,97,93,88,30.09,29.89,11,5,21,0.01
2013-12-15,23.0,17.8,13.0,21.0,14.6,10.0,91,87,80,30.16,30.08,11,5,20,0.01
2013-12-16,22.0,18.3,14.0,21.0,16.0,11.0,95,91,87,30.16,30.06,7,2,12,0.00
2013-12-17,32.0,24.7,20.0,30.0,21.7,16.0,97,88,70,30.24,30.10,10,6,18,0.06
2013-12-18,37.0,26.2,11.0,33.0,19.6,7.0,87,76,55,30.25,29.93,16,7,28,0.19
2013-12-19,45.0,39.3,34.0,43.0,37.1,31.0,94,92,88,29.95,29.78,11,8,21,0.15
2013-12-20,56.0,43.1,30.0,55.0,42.2,29.0,99,97,95,29.86,29.68,9,5,21,0.14
2013-12-21,33.0,30.7,29.0,32.0,28.7,-99.9,98,96,96,29.87,29.55,8,2,12,0.09
2013-12-22,33.0,29.9,23.0,32.0,28.5,20.0,98,94,90,30.24,29.59,6,1,13,0.24
2013-12-23,22.0,14.2,5.0,20.0,10.3,-2.0,91,84,72,30.58,30.23,0,0,0,0.23
2013-12-24,20.0,10.9,2.0,14.0,5.3,-3.0,81,77,73,30.66,30.42,10,4,18,0.00
2013-12-25,30.0,25.5,20.0,28.0,21.7,13.0,92,86,75,30.42,30.22,12,8,22,0.00
2013-12-26,38.0,30.0,17.0,31.0,25.4,15.0,93,83,68,30.38,30.23,11,6,18,0.00
2013-12-27,46.0,34.7,25.0,36.0,29.8,22.0,91,83,66,30.36,30.20,11,6,18,0.00
2013-12-28,52.0,39.2,32.0,40.0,32.0,-99.9,89,78,61,30.20,29.90,14,7,19,0.00
2013-12-29,36.0,26.7,10.0,32.0,23.8,5.0,95,88,82,30.27,29.82,14,9,25,0.00
2013-12-30,18.0,10.3,2.0,11.0,4.4,-2.0,84,77,65,30.40,30.25,10,4,15,0.00
2013-12-31,29.0,20.7,13.0,22.0,14.7,10.0,88,78,66,30.44,30.24,7,3,12,0.00
2014-1-1,28.0,21.8,18.0,23.0,18.7,16.0,92,88,82,30.24,30.13,8,4,15,0.00
2014-1-2,18.0,12.9,3.0,16.0,10.2,-1.0,92,88,84,30.49,30.11,13,7,20,0.00